Washington, MO

1:51 AM CDT on March 29, 2017 (GMT -0500)
Washington

Weather History for KFYG - November, 2013

Change the Weather History Date:

Monday, November 4, 2013

  Actual Average (KSUS) Record (KSUS)
Temperature  
Mean Temperature 55 °F -  
Max Temperature 62 °F 57 °F 80 °F (2003)
Min Temperature 48 °F 37 °F 26 °F (2012)
Degree Days  
Heating Degree Days 10    
Growing Degree Days 5 (Base 50)    
Moisture  
Dew Point 41 °F    
Average Humidity 62    
Maximum Humidity 77    
Minimum Humidity 45    
Precipitation  
Precipitation 0.00 in - - ()
Sea Level Pressure  
Sea Level Pressure 30.14 in    
Wind  
Wind Speed 10 mph (SSE)    
Max Wind Speed 15 mph    
Max Gust Speed 23 mph    
Visibility 10 miles    
Events      
Averages and records for this station are not official NWS values.
T = Trace of Precipitation, MM = Missing Value Source: NWS Daily Summary

Daily Weather History Graph

Daily Weather History Graph

Search for Another Location

Airport or City:

Trip Planner

Search our weather history database for the weather conditions in past years. The results will help you decide how hot, cold, wet, or windy it might be!

Date:

Astronomy

Nov. 04, 2013 Rise Set
Actual Time 6:34 AM CST 5:00 PM CST
Civil Twilight 6:06 AM CST 5:28 PM CST
Nautical Twilight 5:34 AM CST 5:59 PM CST
Astronomical Twilight 5:03 AM CST 6:30 PM CST
Moon 7:44 AM CST (11/4) 6:06 PM CST (11/4)
Length of Visible Light 11h 21m
Length of Day
10h 26m
New Moon, 2% of the Moon is Illuminated
Nov 4
New Moon
Nov 9
First Quarter
Nov 17
Full
Nov 25
Last Quarter
Dec 2
New

Hourly Weather History & Observations

Time (CST) Temp. Dew Point Humidity Pressure Visibility Wind Dir Wind Speed Gust Speed Precip Events Conditions
12:15 AM 48.2 °F 35.6 °F 62% 30.13 in 10.0 mi SE 10.4 mph - N/A   Scattered Clouds
12:35 AM 48.2 °F 35.6 °F 62% 30.13 in 10.0 mi SE 10.4 mph - N/A   Partly Cloudy
12:55 AM 48.2 °F 35.6 °F 62% 30.13 in 10.0 mi SE 9.2 mph - N/A   Scattered Clouds
1:15 AM 48.2 °F 33.8 °F 58% 30.13 in 10.0 mi ESE 11.5 mph - N/A   Scattered Clouds
1:35 AM 48.2 °F 33.8 °F 58% 30.11 in 10.0 mi ESE 12.7 mph - N/A   Scattered Clouds
1:55 AM 48.2 °F 35.6 °F 62% 30.11 in 10.0 mi ESE 11.5 mph 18.4 mph N/A   Partly Cloudy
2:15 AM 48.2 °F 35.6 °F 62% 30.12 in 10.0 mi SE 10.4 mph - N/A   Partly Cloudy
2:35 AM 48.2 °F 35.6 °F 62% 30.11 in 10.0 mi SE 9.2 mph - N/A   Partly Cloudy
2:55 AM 48.2 °F 35.6 °F 62% 30.12 in 10.0 mi SE 8.1 mph - N/A   Partly Cloudy
3:15 AM 48.2 °F 35.6 °F 62% 30.10 in 10.0 mi ESE 12.7 mph - N/A   Partly Cloudy
3:35 AM 48.2 °F 35.6 °F 62% 30.11 in 10.0 mi SE 11.5 mph - N/A   Clear
3:55 AM 48.2 °F 35.6 °F 62% 30.12 in 10.0 mi SE 9.2 mph - N/A   Partly Cloudy
4:15 AM 48.2 °F 35.6 °F 62% 30.10 in 10.0 mi SE 12.7 mph - N/A   Clear
4:35 AM 48.2 °F 35.6 °F 62% 30.11 in 10.0 mi SE 11.5 mph - N/A   Partly Cloudy
4:55 AM 48.2 °F 35.6 °F 62% 30.12 in 10.0 mi SE 8.1 mph - N/A   Clear
5:15 AM 48.2 °F 35.6 °F 62% 30.13 in 10.0 mi SE 6.9 mph - N/A   Clear
5:35 AM 48.2 °F 37.4 °F 66% 30.14 in 10.0 mi ESE 4.6 mph - N/A   Clear
5:55 AM 48.2 °F 37.4 °F 66% 30.12 in 10.0 mi ESE 9.2 mph - N/A   Clear
6:15 AM 48.2 °F 37.4 °F 66% 30.12 in 10.0 mi ESE 10.4 mph - N/A   Clear
6:35 AM 48.2 °F 37.4 °F 66% 30.12 in 10.0 mi ESE 13.8 mph - N/A   Clear
6:55 AM 48.2 °F 37.4 °F 66% 30.12 in 10.0 mi ESE 12.7 mph 18.4 mph N/A   Clear
7:15 AM 48.2 °F 37.4 °F 66% 30.13 in 10.0 mi SE 11.5 mph - N/A   Clear
7:35 AM 48.2 °F 37.4 °F 66% 30.13 in 10.0 mi SE 12.7 mph - N/A   Clear
7:55 AM 48.2 °F 37.4 °F 66% 30.14 in 10.0 mi SE 11.5 mph - N/A   Clear
8:15 AM 48.2 °F 37.4 °F 66% 30.13 in 10.0 mi ESE 11.5 mph 17.3 mph N/A   Clear
8:35 AM 48.2 °F 37.4 °F 66% 30.13 in 10.0 mi SE 11.5 mph - N/A   Clear
8:55 AM 50.0 °F 37.4 °F 62% 30.14 in 10.0 mi SE 12.7 mph - N/A   Clear
9:15 AM 50.0 °F 39.2 °F 66% 30.13 in 10.0 mi SE 11.5 mph - N/A   Partly Cloudy
9:35 AM 50.0 °F 39.2 °F 66% 30.13 in 10.0 mi SE 9.2 mph - N/A   Partly Cloudy
9:55 AM 51.8 °F 39.2 °F 62% 30.14 in 10.0 mi SE 9.2 mph - N/A   Partly Cloudy
10:15 AM 53.6 °F 41.0 °F 62% 30.13 in 10.0 mi SE 10.4 mph - N/A   Clear
10:35 AM 55.4 °F 41.0 °F 58% 30.14 in 10.0 mi SSE 8.1 mph - N/A   Partly Cloudy
10:55 AM 55.4 °F 41.0 °F 58% 30.15 in 10.0 mi South 5.8 mph - N/A   Clear
11:15 AM 57.2 °F 41.0 °F 55% 30.14 in 10.0 mi South 11.5 mph - N/A   Scattered Clouds
11:35 AM 57.2 °F 41.0 °F 55% 30.13 in 10.0 mi SSE 13.8 mph 18.4 mph N/A   Scattered Clouds
11:55 AM 57.2 °F 42.8 °F 59% 30.12 in 10.0 mi South 15.0 mph 19.6 mph N/A   Mostly Cloudy
12:15 PM 57.2 °F 42.8 °F 59% 30.11 in 10.0 mi South 15.0 mph 23.0 mph N/A   Mostly Cloudy
12:35 PM 57.2 °F 42.8 °F 59% 30.11 in 10.0 mi South 10.4 mph - N/A   Mostly Cloudy
12:55 PM 57.2 °F 42.8 °F 59% 30.11 in 10.0 mi South 9.2 mph - N/A   Overcast
1:15 PM 57.2 °F 42.8 °F 59% 30.10 in 10.0 mi South 13.8 mph - N/A   Overcast
1:35 PM 57.2 °F 42.8 °F 59% 30.10 in 10.0 mi South 11.5 mph - N/A   Overcast
1:55 PM 59.0 °F 44.6 °F 59% 30.09 in 10.0 mi SSE 12.7 mph - N/A   Overcast
2:15 PM 59.0 °F 42.8 °F 55% 30.09 in 10.0 mi SSE 11.5 mph - N/A   Overcast
2:35 PM 59.0 °F 42.8 °F 55% 30.09 in 10.0 mi South 12.7 mph - N/A   Overcast
2:55 PM 60.8 °F 42.8 °F 52% 30.09 in 10.0 mi SSE 13.8 mph - N/A   Mostly Cloudy
3:15 PM 60.8 °F 41.0 °F 48% 30.09 in 10.0 mi South 11.5 mph - N/A   Mostly Cloudy
3:35 PM 62.6 °F 41.0 °F 45% 30.09 in 10.0 mi South 15.0 mph 19.6 mph N/A   Mostly Cloudy
3:55 PM 62.6 °F 41.0 °F 45% 30.10 in 10.0 mi South 9.2 mph 17.3 mph N/A   Partly Cloudy
4:15 PM 60.8 °F 41.0 °F 48% 30.11 in 10.0 mi South 12.7 mph - N/A   Clear
4:35 PM 59.0 °F 42.8 °F 55% 30.11 in 10.0 mi South 9.2 mph - N/A   Clear
4:55 PM 59.0 °F 42.8 °F 55% 30.12 in 10.0 mi South 9.2 mph - N/A   Clear
5:15 PM 57.2 °F 44.6 °F 63% 30.12 in 10.0 mi SSE 8.1 mph - N/A   Mostly Cloudy
5:35 PM 55.4 °F 44.6 °F 67% 30.14 in 10.0 mi SSE 5.8 mph - N/A   Mostly Cloudy
5:55 PM 55.4 °F 44.6 °F 67% 30.14 in 10.0 mi SSE 5.8 mph - N/A   Overcast
6:15 PM 55.4 °F 44.6 °F 67% 30.15 in 10.0 mi SE 4.6 mph - N/A   Overcast
6:35 PM 55.4 °F 44.6 °F 67% 30.16 in 10.0 mi SSE 5.8 mph - N/A   Overcast
6:55 PM 55.4 °F 44.6 °F 67% 30.17 in 10.0 mi SSE 6.9 mph - N/A   Overcast
7:15 PM 55.4 °F 44.6 °F 67% 30.17 in 10.0 mi SSE 9.2 mph - N/A   Overcast
7:35 PM 55.4 °F 44.6 °F 67% 30.16 in 10.0 mi SSE 9.2 mph - N/A   Overcast
7:55 PM 55.4 °F 44.6 °F 67% 30.17 in 10.0 mi South 10.4 mph - N/A   Mostly Cloudy
8:15 PM 55.4 °F 44.6 °F 67% 30.17 in 10.0 mi South 10.4 mph - N/A   Mostly Cloudy
8:35 PM 55.4 °F 44.6 °F 67% 30.18 in 10.0 mi South 11.5 mph - N/A   Overcast
8:55 PM 57.2 °F 44.6 °F 63% 30.18 in 10.0 mi South 6.9 mph - N/A   Overcast
9:15 PM 57.2 °F 46.4 °F 67% 30.19 in 10.0 mi South 10.4 mph - N/A   Overcast
9:35 PM 57.2 °F 46.4 °F 67% 30.19 in 10.0 mi South 8.1 mph - N/A   Overcast
9:55 PM 57.2 °F 46.4 °F 67% 30.20 in 10.0 mi South 8.1 mph - N/A   Overcast
10:15 PM 55.4 °F 46.4 °F 72% 30.20 in 10.0 mi South 9.2 mph - N/A   Overcast
10:35 PM 55.4 °F 46.4 °F 72% 30.20 in 10.0 mi South 10.4 mph - N/A   Overcast
10:55 PM 55.4 °F 46.4 °F 72% 30.20 in 10.0 mi South 9.2 mph - N/A   Overcast
11:15 PM 55.4 °F 46.4 °F 72% 30.21 in 10.0 mi South 10.4 mph - N/A   Overcast
11:35 PM 55.4 °F 48.2 °F 77% 30.21 in 10.0 mi South 10.4 mph - N/A   Overcast
11:55 PM 55.4 °F 48.2 °F 77% 30.21 in 10.0 mi South 9.2 mph - N/A   Overcast